Regional Weather Roundup
Issued by NWS Upton, NY

Current Version | Previous Version | Text Only | Print | Product List | Glossary Off
Versions: 1 2 3 4 5 6 7 8 9 10 11 12 13 14 15 16 17 18 19 20 21 22 23 24 25 26 27

000
ASUS41 KOKX 031004
RWROKX

REGIONAL WEATHER ROUNDUP
NATIONAL WEATHER SERVICE NEW YORK NY
600 AM EDT TUE MAY 03 2016

NOTE: "FAIR" INDICATES FEW OR NO CLOUDS BELOW 12,000 FEET WITH NO
SIGNIFICANT WEATHER AND/OR OBSTRUCTIONS TO VISIBILITY.

NYZ071-072-176-178-NJZ106-104-031100-
NEW YORK CITY METRO AREA


CITY           SKY/WX    TMP DP  RH WIND       PRES   REMARKS
CENTRAL PARK   RAIN      52  50  93 SE6       29.91R FOG
LAGUARDIA APRT RAIN      53  51  93 E5        29.88R FOG
KENNEDY INTL   RAIN      53  51  93 NE7       29.89R FOG
NEWARK/LIBERTY RAIN      54  54 100 E7        29.86R FOG
BRNX BOT. GARD   N/A     52  50  93 E1        29.88R
TETERBORO      RAIN      53  49  86 E6        29.87R FOG
$$

NYZ177-179-078>081-031100-
LONG ISLAND NEW YORK

CITY           SKY/WX    TMP DP  RH WIND       PRES   REMARKS
FARMINGDALE    LGT RAIN  52  50  93 NE8       29.86R
ISLIP          NOT AVBL
SHIRLEY        LGT RAIN  52  50  93 N7        29.87F FOG
RIVERHEAD        N/A     52  50  93 NE3       29.87F
WESTHAMPTON    LGT RAIN  49  49 100 NE9       29.88S FOG
EAST HAMPTON   CLOUDY    50  49  98 NE6       29.88S FOG
MONTAUK POINT    N/A     49  48  97 NE5       29.90F
$$

NYZ052-065-067-031100-
HUDSON VALLEY

CITY           SKY/WX    TMP DP  RH WIND       PRES   REMARKS
WHITE PLAINS   LGT RAIN  51  49  92 E3        29.87R FOG
NEWBURGH       DRIZZLE   50  50 100 NE12      29.88F FOG
MONTGOMERY     LGT RAIN  50  49  96 NE3       29.87S
POUGHKEEPSIE   CLOUDY    51  47  86 NE5       29.87F
ALBANY         CLOUDY    46  42  86 N5        29.91S
$$

NJZ001-105-106-008-010-013-015-019>022-104-031100-
NEW JERSEY

CITY           SKY/WX    TMP DP  RH WIND       PRES   REMARKS
NEWARK/LIBERTY RAIN      54  54 100 E7        29.86R FOG
TETERBORO      RAIN      53  49  86 E6        29.87R FOG
CALDWELL       LGT RAIN  53  50  89 E9        29.87S
MORRISTOWN     RAIN      54  52  94 CALM      29.87S
SOMERVILLE     LGT RAIN  54  53  97 CALM      29.83F FOG
SUSSEX         LGT RAIN  50  48  93 NE6       29.87R
ANDOVER          N/A     51  50  96 NE5       29.85S
TRENTON        LGT RAIN  55  53  93 E7        29.83F FOG
MILLVILLE      LGT RAIN  56  55  97 E5        29.81S
ATLANTIC CITY  CLOUDY    54  53  97 E6        29.81S
WRIGHTSTOWN    LGT RAIN  54  54 100 NE8       29.82R
TOMS RIVER     CLOUDY    54  50  87 NE7       29.85R
BELMAR         LGT RAIN  52  52 100 NE7       29.87R FOG
$$

PAZ047>061-062-071-031100-
EASTERN PENNSYLVANIA

CITY           SKY/WX    TMP DP  RH WIND       PRES   REMARKS
PHILADELPHIA   LGT RAIN  57  53  86 NE5       29.83S
ALLENTOWN      CLOUDY    53  50  89 NE6       29.85S
SCRANTON       LGT RAIN  48  46  93 N3        29.87R FOG
$$

CTZ002-004>006-009-010-012-RIZ004-006-007-MAZ004-011-015-031100-
SOUTHERN NEW ENGLAND
 IN CT

CITY           SKY/WX    TMP DP  RH WIND       PRES   REMARKS
BRADLEY INTL   RAIN      48  46  93 CALM      29.89S FOG
HARTFORD       LGT RAIN  51  48  89 NE3       29.90S FOG
DANBURY        LGT RAIN  50  47  89 E5        29.89R FOG
WTRBRY/OXFORD    N/A     48  45  87 E5        29.89S
BRIDGEPORT     RAIN      52  50  93 E7        29.88R FOG
MERIDEN        RAIN      51  48  89 CALM      29.89S FOG
NEW HAVEN      LGT RAIN  50  49  96 NE5       29.88S FOG
CHESTER        DRIZZLE   48  48 100 VRB5      29.89S
GROTON         LGT RAIN  50  50 100 NE8       29.90R
WILLIMANTIC    RAIN      49  46  90 CALM      29.91R FOG

 IN RI

CITY           SKY/WX    TMP DP  RH WIND       PRES   REMARKS
PROVIDENCE     LGT RAIN  48  46  93 SE6       29.94R FOG
BLOCK ISLAND   LGT RAIN  48  47  96 E10       29.91F FOG
WESTERLY       LGT RAIN  50  46  86 NE8       29.91R

 IN MA

CITY           SKY/WX    TMP DP  RH WIND       PRES   REMARKS
BOSTON         LGT RAIN  46  43  89 CALM      29.94S
WORCESTER      LGT RAIN  45  44  97 CALM      29.90S FOG
WESTFIELD      LGT RAIN  47  45  93 CALM      29.90S
PROVINCETOWN   LGT RAIN  46  43  89 CALM      29.95F
NANTUCKET      LGT RAIN  48  44  86 NE5       29.93S
$$

ANZ330-335-338-340-345-350-353-355-031100-
COASTAL MARINE OBSERVATIONS


STATION/POSITION TIME  SKY/WX   TEMP    WIND        PRES    VSBY  WAVE
                                AIR SEA DIR/SP/G                  HT/PER
                 (UTC)          (F)     (DEG/KT/KT) (MB)    (MI)  (FT/S)
NY HARB ENTRANCE 0850            51 51   60/  8/  8 1010.3          3/ 6
20S FIRE ISLAND  0850            49 49   60/  8/ 10 1010.2          3/ 9
GREAT SOUTH BAY  0915            54 56   20/  8/ 12   N/A
23 SSW MONTAUK P 0950            48 47   50/ 12/ 14 1010.7          3/ 6
15 E BARNEGAT LI 0922               51                N/A           3/ 9
HUDSON CANYON    0850            51 49              1009.7          3/ 9
KINGS POINT      0900            52 54              1010.9
EXECUTION ROCKS  NOT AVBL
CENTRAL LI SOUND NOT AVBL
EASTERN LI SOUND 0900            49 48   70/  8/ 10   N/A
ROBBINS REEF     0900            54      70/ 12/ 15 1010.1
$$


>>>>>>>>>>>>>>>>>>>>>>>>>>>> KEY <<<<<<<<<<<<<<<<<<<<<<<<<<<
>                                                          <
>     SKY/WX - SKY CONDITION/PRESENT WEATHER               <
>     TMP    - TEMPERATURE IN FAHRENHEIT                   <
>     DP     - DEWPOINT IN FAHRENHEIT                      <
>     RH     - RELATIVE HUMIDITY IN PERCENT                <
>     WIND   - DIRECTION AND SPEED IN MPH                  <
>     PRES   - MEAN SEA LEVEL PRESSURE IN INCHES OF HG     <
>     WCI    - WIND CHILL INDEX                            <
>     VSB    - VISIBILITY IN MILES                         <
>     HX     - HEAT INDEX                                  <
>     TC     - TEMPERATURE IN CELSIUS                      <
>     VRB    - VARIABLE WIND DIRECTION                     <
>                                                          <
>>>>>>>>>>>>>>>>>>>>>>>>>>>> KEY <<<<<<<<<<<<<<<<<<<<<<<<<<<






USA.gov is the U.S. government's official web portal to all federal, state and local government web resources and services.